AQI (39)

Current Conditions for Foresthill, CA. Sunny, Dry   
Visibility: 10 miles
Space WX Alerts: ALERT:  Electron 2MeV Integral Flux exceeded 1000pfu ( Latest Alert ) - Issue Time: 2021 Feb 26 1247 UTC

  Summary / Temperature 

Current Temperature
39.6°F
4.2°C
(24/hr Ago)
42.7°F
(Apparent temp)
33.9°F
Cool
Wind Chill Graphs
39.6°F 
Wind Chill-Avg
38.0°F 3.3°C
 --- Virtual Temp: 40.5°F ---

 Temp Rate:

 24/hr Difference:

 Avg Running Temp:

 Todays High:

 Todays Low:

 Y-days High:

 Y-days Low:

 Todays WChill:

 Y-days WChill:

 Evapotranspiration:

+0.4°F/hr 

-3.1°F

38.5°F

41.8°F 12:00am

37.8°F 6:41am

60.1°F 2:08pm

36.4°F 12:00am

30.5°F 6:05am

26.9°F 3:37am

0.006 in

115' Above Ground

 Temperature:

 6'AGL VRS 115'AGL:

 Avg Running Temp:

 Humidity:

 Todays High:

 Todays Low:

 Y-days High:

 Y-days Low:

55.0°F 

+15.4°F

55.0°F

0% 

55.0°F 12:00am

55.0°F 12:00am

59.0°F 11:12am

50.0°F 12:00am

Temp & Humidity Graphs

  Wind 

Wind Speed

 6.0 mph

Gusting to

 7.0 mph

Wind from ESE

102°  ESE

Light breeze

 Avg speed:

 Wind Run:

 Peak Gust:

  2.0 mph 

8.0 miles

  12.0 mph 6:05am

  Almanac  

Moon age: 14 days,0 hours,51 minutes,99%

Full moon
99%
Illuminated
14 days in cycle

 Moonrise:

 Moonset:

 Sunrise:

 Sunset:

 Solar Noon:

5:23pm

6:41am

6:36am

5:50pm

12:16pm

2min 29s more daylight tomorrow 

  Solar Radiation 

(Current Solar)
  239 W/m2 (112%)
(Todays High)
 239 W/m2@8:06am
Feels like: 40.5°F in the sun

Rain

 Rain Today:

 Rain Rate (/hr):

 Rain last hour:

 Rain Yesterday:

 This Month:

 Season Total:

5 Days Since Last Rain Day

0.00 in

0.000 in

0.00 in

0.00 in

4.56 in

18.76 in

Updated Time

Updated: 2/26/21  8:06am

(Updated  sec ago)

Humidity & Barometer

 Humidity:

 Wetbulb:

 Dew Point:

 Barometer:

53% 

34.4°F 

23.9°F 

30.211 inHg 

 Baro Trend:  Steady 
Northern Calif
Preparedness
Fire 
Level 

    UV Index  

(Current UV)
0.0  None
(Todays High) @ 12:00am
0.0   None

National Weather Service Forecast

Overnight

Overnight: Clear
Clear
Friday

Friday: Sunny
Sunny
Friday
Night
Friday Night: Clear
Clear
Saturday

Saturday: Sunny
Sunny
Saturday
Night
Saturday Night: Clear
Clear
Sunday

Sunday: Sunny
Sunny
Lo 39 °F Hi 53 °F ↓ Lo 35 °F Hi 52 °F Lo 36 °F Hi 57 °F

Foresthill Probe 2 Stats  
Foresthill Probe 2: is located on Thomas Street
at 3000 feet. The main Foresthill Weather site
is located on Melody ln at the 2860 foot elevation

Calm
38.5°F
3.6°C
Temp Rate:
+0.3°F
Calm
Gusting to
2.0 mph
(Humidity)
54%
Wind from SE
128°  SE
Updated: 26/02/21 - 08:06:38
 Todays High: 40.4°F 00:00
 Todays Low: 36.5°F 06:58
 Rain Today: 0.00 in
 Season Total: 18.90 in

Foresthill Wx: Monthly,Yearly, Highs and Lows 

Foresthill  
This Weather Data is coming from the main Foresthill
Weather site located on Melody ln at the 2860 foot
elevation
Not Foresthill Probe 2
Weather Data
Month
  High
Month
  Low
Year
High
Year
Low
Temp 69.6°F
2/23/21
32.2°F
2/17/21
71.0°F
1/17/21
25.3°F
1/26/21
Humidity 100%
2/13/21
10%
2/24/21
100%
1/3/21
10%
2/24/21
Heat Index 68.3°F
2/23/21
34.6°F
2/17/21
70.2°F
1/17/21
31.2°F
1/26/21
Wind Chill 69.6°F
2/23/21
23.2°F
2/4/21
71.0°F
1/17/21
12.5°F
1/26/21
Wind Gust 29 mph
2/25/21
0 mph
2/1/21
50 mph
1/19/21
0 mph
1/1/21
Barometer 30.52 in
2/21/21
29.89 in
2/11/21
30.52 in
2/21/21
29.76 in
1/27/21
ET 0.14 in
2/24/21
0.00 in
2/1/21
0.14 in
2/24/21
0.00 in
1/1/21
Dew Point 46.9°F
2/10/21
3.6°F
2/24/21
51.9°F
1/13/21
3.6°F
2/24/21
Visible Satellite Pacific Satellite US Radar Satellite Imagery Sacramento,CA.  (click to enlarge)
NWS Weather Forecast - Summary
Updated: Friday, February 26, 2021 - 1:30am PST
NWS Weather Forecast: Overnight and Friday (Updated: Fri, 26-Feb-2021 1:47am PST)
Overnight

Overnight: Clear
Clear

Lo 39 °F
NWS forecast: Clear, with a low around 39. East wind around 8 mph.
Friday

Friday: Sunny
Sunny

Hi 53 °F ↓
NWS forecast: Sunny. High near 53, with temperatures falling to around 48 in the afternoon. Southwest wind 6 to 9 mph.
YR.NO 10 Day Weather forecast
Last update: 02/26/2021 @ 06:22
Next update: 02/26/2021 @ 12:34
Provided by: 22
      Temperature Precipitation Pressure Wind  
Today
02/26/2021
07:00 12:00 30°F   30.13 inHg Light breeze from east 4 mph
  12:00 18:00 54°F   30.12 inHg Gentle breeze from west 8 mph
  18:00 00:00 43°F   30.06 inHg Light air from west-northwest 3 mph
    (Click to enlarge)
meteogram

    Forecast for next 9 days

      Temperature Precip Pressure Wind  
Saturday
02/27/2021
00:00 06:00 28°F   30.10 inHg Light air from east 3 mph
  06:00 12:00 27°F   30.11 inHg Gentle breeze from east-northeast 8 mph
  12:00 18:00 48°F   30.12 inHg Gentle breeze from north 8 mph
  18:00 00:00 41°F   30.12 inHg Light breeze from north-northeast 6 mph
      Temperature Precip Pressure Wind  
Sunday
02/28/2021
00:00 06:00 36°F   30.17 inHg Gentle breeze from northeast 8 mph
  06:00 12:00 30°F   30.18 inHg Light breeze from east-northeast 6 mph
  12:00 18:00 55°F   30.15 inHg Light breeze from west-southwest 5 mph
  16:00 22:00 52°F   30.16 inHg Light breeze from west 4 mph
  22:00 04:00 34°F   30.21 inHg Light breeze from east 7 mph
      Temperature Precip Pressure Wind  
Monday
03/01/2021
04:00 10:00 30°F   30.20 inHg Light breeze from east 7 mph
  10:00 16:00 54°F   30.22 inHg Light breeze from south 5 mph
  16:00 22:00 54°F   30.12 inHg Light breeze from southwest 7 mph
  22:00 04:00 37°F   30.09 inHg Light breeze from east-southeast 5 mph
      Temperature Precip Pressure Wind  
Tuesday
03/02/2021
04:00 10:00 32°F   30.00 inHg Light breeze from east-northeast 6 mph
  10:00 16:00 54°F   30.01 inHg Light air from north-northeast 3 mph
  16:00 22:00 54°F   29.98 inHg Light breeze from west-northwest 6 mph
  22:00 04:00 36°F   30.02 inHg Light breeze from east-northeast 7 mph
      Temperature Precip Pressure Wind  
Wednesday
03/03/2021
04:00 10:00 34°F   30.01 inHg Gentle breeze from east-northeast 9 mph
  10:00 16:00 55°F   30.06 inHg Calm from west-northwest 0 mph
  16:00 22:00 57°F   30.03 inHg Light breeze from west 4 mph
  22:00 04:00 37°F   30.08 inHg Light breeze from east-northeast 7 mph
      Temperature Precip Pressure Wind  
Thursday
03/04/2021
04:00 10:00 37°F   30.05 inHg Gentle breeze from east-northeast 8 mph
  10:00 16:00 61°F   30.06 inHg Light air from south 2 mph
  16:00 22:00 61°F   30.01 inHg Light breeze from southwest 4 mph
  22:00 04:00 37°F   30.08 inHg Light air from east 3 mph
      Temperature Precip Pressure Wind  
Friday
03/05/2021
04:00 10:00 34°F   30.14 inHg Light breeze from east-southeast 4 mph
  10:00 16:00 50°F   30.16 inHg Light air from west-southwest 3 mph
  16:00 22:00 52°F   30.05 inHg Light breeze from west-southwest 4 mph
  22:00 04:00 36°F   29.98 inHg Light breeze from east 5 mph
      Temperature Precip Pressure Wind  
Saturday
03/06/2021
04:00 10:00 37°F 0.33 in 29.86 inHg Light breeze from east-southeast 6 mph
  10:00 16:00 36°F 0.39 in 29.96 inHg Moderate breeze from south 13 mph
  16:00 22:00 37°F 0.09 in 30.04 inHg Gentle breeze from south-southwest 8 mph
  22:00 04:00 34°F 0.05 in 30.17 inHg Light breeze from southeast 5 mph
      Temperature Precip Pressure Wind  
Sunday
03/07/2021
04:00 10:00 32°F   30.17 inHg Light breeze from east-northeast 4 mph
How Close Are We To this Month's Temperature Record ?
Updated Friday, Feb 26, 2021- 8:05:01 AM

Current Temperature: 39.6°F

February's High: Temperature Record 71.9°F - Set on Thu, Feb 27, 2020 - 2:01:51 PM
We are currently 32.3°F Less than this Month's record High

February's Low: Temperature Record 21.9°F - Set on Fri, Feb 23, 2018 - 6:14:00 AM
We are currently 17.7°F More than this Month's record Low

Weather History For Friday, February 26, 2021


On this Day - In Weather History ...
Data courtesy of weatherforyou.com
powered by Cumulus v1.9.3 (1059)
Ambient Weather VWS v14.00
Top Website Map Copyright © 2007 - 2021 Foresthillweather.com Never base important decisions on this or any weather information obtained from the Internet